Weather Roundup
Issued by NWS Chicago, IL

Home | Current Version | Previous Version | Text Only | Print | Product List | Glossary On
Versions: 1 2 3 4 5 6 7 8 9 10 11 12 13 14 15 16 17 18 19 20 21 22 23 24 25 26 27 28 29 30 31 32 33 34 35 36 37 38 39 40 41 42 43 44 45 46 47 48 49 50
000
NZUS59 KLOT 281210
HRRLOT

CHICAGO AREA WEATHER ROUNDUP
NATIONAL WEATHER SERVICE CHICAGO/ROMEOVILLE IL
700 AM CDT THU AUG 28 2014

NOTE: "FAIR" INDICATES FEW OR NO CLOUDS BELOW 12,000 FEET WITH NO
SIGNIFICANT WEATHER AND/OR OBSTRUCTIONS TO VISIBILITY.

* THESE STATIONS ARE NOT UNDER NWS QUALITY CONTROL. THEY ALSO MAY NOT
  REPORT WEATHER SUCH AS PRECIPITATION OR FOG.

ILZ005-006-012>014-019>023-281300-
NORTHEAST ILLINOIS

CITY           SKY/WX    TMP DP  RH WIND       PRES   REMARKS
OHARE          MOCLDY    67  55  65 E9        30.14R
6HR MIN TEMP:  67; 6HR MAX TEMP:  68;

MIDWAY         MOCLDY    69  58  67 E9        30.14R
6HR MIN TEMP:  69; 6HR MAX TEMP:  71;

AURORA         PTCLDY    61  58  90 CALM      30.14R
6HR MIN TEMP:  60; 6HR MAX TEMP:  63;

LANSING*       CLEAR     62  56  82 NE5       30.14S
JOLIET*        CLEAR     63  59  88 CALM      30.14S
WAUKEGAN       CLEAR     64  56  75 E6        30.14S
6HR MIN TEMP:  58; 6HR MAX TEMP:  64;

DUPAGE AIRPORT CLOUDY    66  59  78 CALM      30.14R
6HR MIN TEMP:  63; 6HR MAX TEMP:  66;

WHEELING       CLOUDY    67  57  70 E6        30.16R
6HR MIN TEMP:  65; 6HR MAX TEMP:  68;

KANKAKEE*      CLEAR     61  58  91 E3        30.14R
MORRIS*        PTCLDY    63  63  98 E5        30.13R
LEWIS AIRPORT* CLEAR     63  60  88 E5        30.14R
NORTHERLY IS     N/A     67  56  67 E14         N/A
$$

WIZ051-052-058>065-066-070>072-281300-
SOUTHEAST WISCONSIN

CITY           SKY/WX    TMP DP  RH WIND       PRES   REMARKS
MILWAUKEE      PTCLDY    64  56  75 SE10      30.15R
6HR MIN TEMP:  60; 6HR MAX TEMP:  64;

KENOSHA*       CLEAR     63  57  81 E8        30.16R
RACINE*        CLEAR     65  55  70 SE10      30.17R
BURLINGTON     FOG       53  53 100 CALM      30.15S VSB 3/4
WAUKESHA       CLEAR     54  54 100 CALM      30.17R
WEST BEND      CLEAR     52  50  93 CALM      30.16S
$$

INZ001>003-010>013-019-020-281300-
NORTHWEST INDIANA

CITY           SKY/WX    TMP DP  RH WIND       PRES   REMARKS
GARY*          PTCLDY    63  57  82 VRB5      30.14R
MICHIGAN CITY* NOT AVBL
RENSSELAER*    NOT AVBL
VALPARAISO     CLEAR     58  56  93 NE3       30.15R
$$

LMZ740>746-281300-
SOUTHERN LAKE MICHIGAN

STATION/POSITION TIME  SKY/WX   TEMP WIND        PRES    VSBY
                                AIR  DIR/SP/G
                 (UTC)          (F)  (DEG/KT/KT) (MB)    (MI)
HARRISON CRIB    1200            67   90/ 16/ 19   N/A
BURNHAM HARBOR   1200            67   80/ 10/ 16   N/A
CALUMET HARBOR   1200            67   70/ 10/ 14 1019.3R
BURNS HARBOR     NOT AVBL
MICHIGAN CITY    1200            60   50/  8/ 10   N/A
$$

ABBREVIATIONS USED IN REMARKS
   TC - TEMPERATURE IN CELSIUS
  WCI - WIND CHILL INDEX
   HX - HEAT INDEX
  VSB - VISIBILITY
$$


USA.gov is the U.S. government's official web portal to all federal, state and local government web resources and services.